Location: DARK SKY Beskydy - Park tmavé oblohy, www.darkskybeskydy.cz
(49.4926°N, 18.5016°E)
Time: 05:05:38
(UTC+01:00)

deb Explorer IX - All Passes

Search period start: 23 February 2024 00:00
Search period end: 04 March 2024 00:00
Orbit: 517 x 916 km, 38.7° (Epoch: 20 February)

Date Brightness Start Highest point End Pass type
(mag) Time Alt. Az. Time Alt. Az. Time Alt. Az.
23 Feb - 09:45:22 10° SSE 09:46:31 11° SSE 09:47:40 10° SE daylight
23 Feb - 11:25:17 10° SSW 11:30:04 23° SSE 11:34:43 10° ESE daylight
23 Feb - 13:08:44 10° WSW 13:13:57 29° S 13:18:52 10° ESE daylight
23 Feb - 14:53:24 10° WSW 14:57:45 21° SSW 15:01:49 10° SSE daylight
24 Feb - 10:29:58 10° SSW 10:34:20 20° SSE 10:38:39 10° ESE daylight
24 Feb - 12:12:54 10° SW 12:18:10 29° S 12:23:13 10° ESE daylight
24 Feb - 13:57:11 10° WSW 14:02:03 25° SSW 14:06:39 10° SE daylight
24 Feb - 15:43:20 10° SW 15:45:32 12° SSW 15:47:39 10° S daylight
25 Feb - 09:35:01 10° S 09:38:38 16° SSE 09:42:15 10° ESE daylight
25 Feb - 11:17:10 10° SW 11:22:22 28° S 11:27:26 10° ESE daylight
25 Feb - 13:01:06 10° WSW 13:06:18 28° S 13:11:14 10° SE daylight
25 Feb - 14:46:17 10° WSW 14:49:58 17° SSW 14:53:27 10° SSE daylight
26 Feb - 08:40:46 10° SSE 08:42:58 12° SSE 08:45:11 10° SE daylight
26 Feb - 10:21:34 10° SW 10:26:33 25° SSE 10:31:28 10° ESE daylight
26 Feb - 12:05:07 10° WSW 12:10:27 30° S 12:15:39 10° SE daylight
26 Feb - 13:49:47 10° WSW 13:54:16 21° SSW 13:58:33 10° SSE daylight
27 Feb - 09:26:12 10° SSW 09:30:44 21° SSE 09:35:19 10° ESE daylight
27 Feb - 11:09:13 10° SW 11:14:35 30° S 11:19:52 10° ESE daylight
27 Feb - 12:53:31 10° WSW 12:58:30 25° SSW 13:03:18 10° SE daylight
27 Feb - 14:39:51 10° SW 14:42:00 12° SSW 14:44:04 10° SSW daylight
28 Feb - 08:31:08 10° SSW 08:34:58 17° SSE 08:38:52 10° ESE daylight
28 Feb - 10:13:28 10° SW 10:18:42 29° S 10:23:57 10° ESE daylight
28 Feb - 11:57:24 10° WSW 12:02:39 28° S 12:07:47 10° SE daylight
28 Feb - 13:42:39 10° WSW 13:46:20 16° SSW 13:49:53 10° S daylight
29 Feb - 07:36:40 10° S 07:39:15 13° SSE 07:41:54 10° ESE daylight
29 Feb - 09:17:50 10° SW 09:22:48 26° SSE 09:27:53 10° ESE daylight
29 Feb - 11:01:24 10° WSW 11:06:45 30° S 11:12:04 10° SE daylight
29 Feb - 12:46:05 10° WSW 12:50:34 21° SSW 12:54:57 10° SSE daylight
01 Mar - 08:22:25 10° SSW 08:26:56 22° SSE 08:31:37 10° ESE daylight
01 Mar - 10:05:30 10° WSW 10:10:48 30° S 10:16:11 10° ESE daylight
01 Mar - 11:49:47 10° WSW 11:54:43 25° SSW 11:59:35 10° SE daylight
01 Mar - 13:36:26 10° SW 13:38:13 11° SSW 13:39:58 10° SSW daylight
02 Mar - 07:27:18 10° SSW 07:31:08 18° SSE 07:35:07 10° ESE daylight
02 Mar - 09:09:43 10° SW 09:14:51 29° S 09:20:09 10° ESE daylight
02 Mar - 10:53:38 10° WSW 10:58:48 28° S 11:03:58 10° SE daylight
02 Mar - 12:38:58 10° WSW 12:42:28 15° SSW 12:45:56 10° S daylight
03 Mar - 06:32:43 10° S 06:35:23 13° SSE 06:38:08 10° ESE daylight
03 Mar - 08:14:05 10° SW 08:18:55 26° SSE 08:23:58 10° ESE daylight
03 Mar - 09:57:38 10° WSW 10:02:50 30° S 10:08:09 10° SE daylight
03 Mar - 11:42:20 10° WSW 11:46:38 20° SSW 11:50:57 10° SSE daylight
